Location: Jaite
(41.2884°N, 81.5737°W)
Time: 13:47:46
(UTC+00:00)

ARIANE 5 R/B - Pass Details

Date: 15 November 2025
Orbit: 746 x 792 km, 98.8° (Epoch: 06 December)

Event Time Altitude Azimuth Distance (km) Brightness Sun altitude
Rises 11:34:59 0° 19° (NNE) 3,236 5.8 -7.8°
Reaches altitude 10° 11:37:21 10° 24° (NNE) 2,313 5.1 -7.4°
Maximum altitude 11:42:19 51° 100° (E) 968 3.6 -6.5°
Drops below altitude 10° 11:47:18 10° 177° (S) 2,325 5.3 -5.6°
Sets 11:49:41 0° 182° (S) 3,255 6.0 -5.2°
